Regional Weather Roundup
Issued by NWS Little Rock, AR

Home | Current Version | Previous Version | Graphics & Text | Print | Product List | Glossary On
Versions: 1 2 3 4 5 6 7 8 9 10 11 12 13 14 15 16 17 18 19 20 21 22 23 24 25 26 27 28 29 30 31 32 33 34 35 36 37 38 39 40 41 42 43 44 45 46 47 48 49 50
992
ASUS44 KLZK 202105
RWRLZK

WEATHER ROUNDUP FOR ARKANSAS
NATIONAL WEATHER SERVICE LITTLE ROCK AR
400 PM CDT SUN AUG 20 2017

NOTE: "FAIR" INDICATES FEW OR NO CLOUDS BELOW 12,000 FEET WITH NO
SIGNIFICANT WEATHER AND/OR OBSTRUCTIONS TO VISIBILITY.

ARZ001-003-010-029-202200-
NORTHWEST ARKANSAS

CITY           SKY/WX    TMP DP  RH WIND       PRES   REMARKS
FAYETTEVILLE   SUNNY     91  74  57 S9        30.02F HX 100
FORT SMITH     MOSUNNY   96  73  47 S3        29.96F HX 105
HARRISON       MOSUNNY   89  73  59 SW3       30.04S HX  97
ROGERS         MOSUNNY   93  70  46 SW10      30.03F HX  99
HIGHFILL       MOSUNNY   92  74  55 SW12      30.02F HX 101
SPRINGDALE     MOSUNNY   91  72  52 SW8G15    30.04F HX  98
$$

ARZ004-005-016-202200-
NORTH CENTRAL ARKANSAS

CITY           SKY/WX    TMP DP  RH WIND       PRES   REMARKS
MTN HOME       SUNNY     87  71  58 SE7       30.03R HX  93
$$

ARZ040-041-202200-
WEST CENTRAL ARKANSAS

CITY           SKY/WX    TMP DP  RH WIND       PRES   REMARKS
MENA           NOT AVBL
MOUNT IDA      SUNNY     92  69  47 CALM      29.99F HX  97
$$

ARZ009-017-025-026-028-202200-
NORTHEAST ARKANSAS

CITY           SKY/WX    TMP DP  RH WIND       PRES   REMARKS
CORNING        MOCLDY    81  79  94 SE5       30.04S HX  89
JONESBORO      CLOUDY    77  74  90 N6        30.02S
NEWPORT        CLOUDY    75  69  81 E12       30.03F
BLYTHEVILLE    CLOUDY    86  81  85 NW3       30.03R HX 102
$$

ARZ022-023-033-042-044-202200-
CENTRAL ARKANSAS

CITY           SKY/WX    TMP DP  RH WIND       PRES   REMARKS
LITTLE ROCK    PTSUNNY   95  76  53 SE8       29.99S HX 108
N LITTLE ROCK    N/A     94  75  53 E6        29.99S HX 105
JACKSONVILLE   MOSUNNY   96  78  55 E6        29.99R HX 112
CONWAY           N/A     95  75  52 CALM      29.97R HX 107
SEARCY         MOSUNNY   96  78  56 CALM      30.01S HX 112
HOT SPRINGS    MOSUNNY   96  74  48 SW7       29.99F HX 107
RUSSELLVILLE   SUNNY     94  73  50 VRB3      29.98S HX 103
CLINTON        FAIR      93  75  55 S6        30.00R HX 104
$$

ARZ036-202200-
EAST ARKANSAS

CITY           SKY/WX    TMP DP  RH WIND       PRES   REMARKS
WEST MEMPHIS   CLOUDY    88  76  67 NE9       30.01R HX  99
$$

ARZ050-053-066-070-073-202200-
SOUTHWEST ARKANSAS

CITY           SKY/WX    TMP DP  RH WIND       PRES   REMARKS
ARKADELPHIA    FAIR      96  77  54 CALM      29.98F HX 111
CAMDEN         MOSUNNY   99  72  41 CALM      29.97S HX 107
TEXARKANA      SUNNY     93  71  48 CALM      29.98F HX 100
EL DORADO      MOSUNNY   95  74  50 SE6       29.98F HX 105
DE QUEEN       MOSUNNY   94  76  55 S9        29.96F HX 106
$$

ARZ056-057-069-202200-
SOUTHEAST ARKANSAS

CITY           SKY/WX    TMP DP  RH WIND       PRES   REMARKS
PINE BLUFF     SUNNY     96  72  45 VRB7      29.99S HX 104
MONTICELLO     MOSUNNY   95  74  50 S7        29.99F HX 105

$$






USA.gov is the U.S. government's official web portal to all federal, state and local government web resources and services.